StationID,Date,MaxTemp,MinTemp,Precipitation,Snowfall,SnowDepth
"FIE00142195","1993-06-02",,51.08,,,
"FIE00142195","1993-06-03",56.66,42.62,,,
"FIE00142195","1993-06-04",52.16,39.92,,,
"FIE00142195","1993-06-05",63.14,41.18,,,
"FIE00142195","1993-06-06",56.66,50.00,,,
"FIE00142195","1993-06-07",61.52,42.80,,,
"FIE00142195","1993-06-08",56.84,41.54,,,
"FIE00142195","1993-06-09",65.30,42.44,,,
"FIE00142195","1993-06-10",60.80,41.54,,,
"FIE00142195","1993-06-11",60.80,38.12,,,
"FIE00142195","1993-06-12",61.52,36.68,,,
"FIE00142195","1993-06-13",59.00,44.96,,,
"FIE00142195","1993-06-14",58.10,47.12,,,
"FIE00142195","1993-06-15",61.70,40.64,,,
"FIE00142195","1993-06-16",57.74,41.72,,,
"FIE00142195","1993-06-17",61.16,38.30,,,
"FIE00142195","1993-06-18",63.68,51.62,,,
"FIE00142195","1993-06-19",63.68,42.98,,,
"FIE00142195","1993-06-20",63.86,41.18,,,
"FIE00142195","1993-06-21",68.72,49.28,,,
"FIE00142195","1993-06-22",62.06,47.84,,,
"FIE00142195","1993-06-23",61.52,45.50,,,
"FIE00142195","1993-06-24",64.04,41.54,,,
"FIE00142195","1993-06-25",66.56,46.04,,,
"FIE00142195","1993-06-26",68.00,47.66,,,
"FIE00142195","1993-06-27",66.20,49.10,,,
"FIE00142195","1993-06-28",67.82,46.22,,,
"FIE00142195","1993-06-29",69.98,47.84,,,
"FIE00142195","1993-06-30",67.10,44.96,,,
"FIE00142195","1993-07-01",64.76,47.48,,,
"FIE00142195","1993-07-02",68.90,43.70,,,
"FIE00142195","1993-07-03",69.26,48.20,,,
"FIE00142195","1993-07-04",69.26,53.24,,,
"FIE00142195","1993-07-05",66.02,49.64,,,
"FIE00142195","1993-07-06",63.32,50.72,,,
"FIE00142195","1993-07-07",66.02,42.44,,,
"FIE00142195","1993-07-08",62.60,48.92,,,
"FIE00142195","1993-07-09",65.12,44.24,,,
"FIE00142195","1993-07-10",75.02,55.22,,,
"FIE00142195","1993-07-11",75.74,57.92,,,
"FIE00142195","1993-07-12",71.96,59.72,,,
"FIE00142195","1993-07-13",68.72,60.44,,,
"FIE00142195","1993-07-14",67.28,59.72,,,
"FIE00142195","1993-07-15",66.02,58.28,,,
"FIE00142195","1993-07-16",70.34,57.38,,,
"FIE00142195","1993-07-17",72.50,50.36,,,
"FIE00142195","1993-07-18",71.60,51.98,,,
"FIE00142195","1993-07-19",73.04,50.54,,,
"FIE00142195","1993-07-20",72.14,51.98,,,
"FIE00142195","1993-07-21",69.44,49.64,,,
"FIE00142195","1993-07-22",68.72,56.84,,,
"FIE00142195","1993-07-23",69.62,54.14,,,
"FIE00142195","1993-07-24",64.22,54.14,,,
"FIE00142195","1993-07-25",66.56,60.26,,,
"FIE00142195","1993-07-26",63.86,56.66,,,
"FIE00142195","1993-07-27",65.66,55.58,,,
"FIE00142195","1993-07-28",63.32,,,,
"FIE00142195","1993-07-29",67.10,,,,
"FIE00142195","1993-07-30",73.58,,,,
"FIE00142195","1993-07-31",73.22,,,,
"FIE00142195","1993-08-01",71.42,,,,
"FIE00142195","1993-08-02",71.60,,,,
"FIE00142195","1993-08-03",68.18,,,,
"FIE00142195","1993-08-04",71.06,,,,
"FIE00142195","1993-08-05",69.26,,,,
"FIE00142195","1993-08-06",71.60,,,,
"FIE00142195","1993-08-07",65.12,,,,
"FIE00142195","1993-08-08",68.18,,,,
"FIE00142195","1993-08-09",68.00,50.18,,,
"FIE00142195","1993-08-10",66.92,51.44,,,
"FIE00142195","1993-08-11",66.02,57.02,,,
"FIE00142195","1993-08-12",67.28,48.74,,,
"FIE00142195","1993-08-13",61.16,56.12,,,
"FIE00142195","1993-08-14",65.30,47.66,,,
"FIE00142195","1993-08-15",71.42,44.06,,,
"FIE00142195","1993-08-16",63.86,50.00,,,
"FIE00142195","1993-08-17",63.86,55.58,,,
"FIE00142195","1993-08-18",55.94,49.28,,,
"FIE00142195","1993-08-19",63.68,51.08,,,
"FIE00142195","1993-08-20",62.60,51.98,,,
"FIE00142195","1993-08-21",64.94,43.88,,,
"FIE00142195","1993-08-22",66.74,42.62,,,
"FIE00142195","1993-08-23",58.82,47.12,,,
"FIE00142195","1993-08-24",55.58,50.18,,,
"FIE00142195","1993-08-25",59.90,50.54,,,
"FIE00142195","1993-08-26",59.36,44.60,,,
"FIE00142195","1993-08-27",58.82,41.36,,,
"FIE00142195","1993-08-28",58.46,51.26,,,
"FIE00142195","1993-08-29",57.56,45.86,,,
"FIE00142195","1993-08-30",55.76,45.14,,,
"FIE00142195","1993-08-31",57.74,44.96,,,
"FIE00142195","1993-09-01",58.82,45.50,,,
"FIE00142195","1993-09-02",55.58,44.96,,,
"FIE00142195","1993-09-03",56.12,45.14,,,
"FIE00142195","1993-09-04",51.80,44.06,,,
"FIE00142195","1993-09-05",51.98,41.18,,,
"FIE00142195","1993-09-06",57.38,33.62,,,
"FIE00142195","1993-09-07",53.24,41.72,,,
"FIE00142195","1993-09-08",57.02,40.46,,,
"FIE00142195","1993-09-09",57.92,37.22,,,
"FIE00142195","1993-09-10",55.40,32.54,,,
"FIE00142195","1993-09-11",53.96,31.28,,,
"FIE00142195","1993-09-12",55.40,30.56,,,
"FIE00142195","1993-09-13",49.28,40.64,,,
"FIE00142195","1993-09-14",51.44,31.10,,,
"FIE00142195","1993-09-15",47.30,37.40,,,
"FIE00142195","1993-09-16",49.82,39.74,,,
"FIE00142195","1993-09-17",48.92,36.14,,,
"FIE00142195","1993-09-18",52.52,28.94,,,
"FIE00142195","1993-09-19",49.64,35.24,,,
"FIE00142195","1993-09-20",55.76,,,,
"FIE00142195","1993-09-21",56.12,42.98,,,
"FIE00142195","1993-09-22",58.64,48.20,,,
"FIE00142195","1993-09-23",59.00,42.62,,,
"FIE00142195","1993-09-24",50.54,40.28,,,
"FIE00142195","1993-09-25",46.94,29.30,,,
"FIE00142195","1993-09-26",46.04,33.44,,,
"FIE00142195","1993-09-27",47.30,33.08,,,
"FIE00142195","1993-09-28",48.38,28.58,,,
"FIE00142195","1993-09-29",45.86,30.56,,,
"FIE00142195","1993-09-30",46.76,22.82,,,
"FIE00142195","1993-10-01",49.10,25.70,,,
"FIE00142195","1993-10-02",48.56,26.06,,,
"FIE00142195","1993-10-03",46.58,29.48,,,
"FIE00142195","1993-10-04",47.30,39.56,,,
"FIE00142195","1993-10-05",49.46,43.70,,,
"FIE00142195","1993-10-06",50.36,48.02,,,
"FIE00142195","1993-10-07",52.16,41.72,,,
"FIE00142195","1993-10-08",49.46,46.40,,,
"FIE00142195","1993-10-09",46.40,42.44,,,
"FIE00142195","1993-10-10",47.12,41.72,,,
"FIE00142195","1993-10-11",52.16,46.22,,,
"FIE00142195","1993-10-12",47.30,37.22,,,
"FIE00142195","1993-10-13",53.60,37.58,,,
"FIE00142195","1993-10-14",46.40,32.90,,,
"FIE00142195","1993-10-15",39.56,27.86,,,
"FIE00142195","1993-10-16",42.98,24.80,,,
"FIE00142195","1993-10-17",41.54,33.98,,,
"FIE00142195","1993-10-18",42.62,28.94,,,
"FIE00142195","1993-10-19",46.58,34.88,,,
"FIE00142195","1993-10-20",47.30,41.54,,,
"FIE00142195","1993-10-21",41.72,32.90,,,
"FIE00142195","1993-10-22",33.08,23.72,,,
"FIE00142195","1993-10-23",36.14,21.92,,,
"FIE00142195","1993-10-24",37.22,19.94,,,
"FIE00142195","1993-10-25",39.74,32.72,,,
"FIE00142195","1993-10-26",37.58,26.24,,,
"FIE00142195","1993-10-27",41.72,19.40,,,
"FIE00142195","1993-10-28",44.06,37.58,,,
"FIE00142195","1993-10-29",38.12,28.04,,,
"FIE00142195","1993-10-30",42.98,24.08,,,
"FIE00142195","1993-10-31",41.54,36.14,,,
"FIE00142195","1993-11-01",44.42,30.56,,,
"FIE00142195","1993-11-02",36.86,30.20,,,
"FIE00142195","1993-11-03",35.42,29.66,,,
"FIE00142195","1993-11-04",35.60,33.44,,,
"FIE00142195","1993-11-05",33.80,32.18,,,
"FIE00142195","1993-11-06",32.54,30.20,,,
"FIE00142195","1993-11-07",,31.10,,,
"FIE00142195","1993-11-08",34.70,30.38,,,
"FIE00142195","1993-11-09",34.52,27.68,,,
"FIE00142195","1993-11-10",27.86,21.92,,,
"FIE00142195","1993-11-11",27.86,23.36,,,
"FIE00142195","1993-11-12",28.94,19.40,,,
"FIE00142195","1993-11-13",29.48,25.52,,,
"FIE00142195","1993-11-14",28.04,18.86,,,
"FIE00142195","1993-11-15",30.20,8.42,,,
"FIE00142195","1993-11-16",25.34,10.40,,,
"FIE00142195","1993-11-17",27.86,24.26,,,
"FIE00142195","1993-11-18",33.08,27.68,,,
"FIE00142195","1993-11-19",30.38,18.68,,,
"FIE00142195","1993-11-20",20.30,15.44,,,
"FIE00142195","1993-11-21",18.14,10.94,,,
"FIE00142195","1993-11-22",24.80,10.40,,,
"FIE00142195","1993-11-23",30.74,14.72,,,
"FIE00142195","1993-11-24",30.56,26.42,,,
"FIE00142195","1993-11-25",30.20,24.98,,,
"FIE00142195","1993-11-26",,28.40,,,
"FIE00142195","1993-11-27",34.16,29.12,,,
"FIE00142195","1993-11-28",29.30,18.50,,,
"FIE00142195","1993-11-29",25.34,21.74,,,
"FIE00142195","1993-11-30",24.62,20.66,,,
"FIE00142195","1993-12-01",23.90,21.56,,,
"FIE00142195","1993-12-02",24.62,20.84,,,
"FIE00142195","1993-12-03",22.46,18.86,,,
"FIE00142195","1993-12-04",32.90,,,,
"FIE00142195","1993-12-05",39.20,32.54,,,
"FIE00142195","1993-12-06",36.68,32.36,,,
"FIE00142195","1993-12-07",39.56,27.86,,,
"FIE00142195","1993-12-08",38.30,32.00,,,
"FIE00142195","1993-12-09",33.98,32.00,,,
"FIE00142195","1993-12-10",32.18,24.80,,,
"FIE00142195","1993-12-11",28.40,18.32,,,
"FIE00142195","1993-12-12",27.50,23.00,,,
"FIE00142195","1993-12-13",23.36,21.38,,,
"FIE00142195","1993-12-14",25.52,18.14,,,
"FIE00142195","1993-12-15",27.86,,,,
"FIE00142195","1993-12-16",26.42,18.32,,,
"FIE00142195","1993-12-17",33.98,26.06,,,
"FIE00142195","1993-12-18",32.72,29.66,,,
"FIE00142195","1993-12-19",37.40,29.66,,,
"FIE00142195","1993-12-20",40.10,30.92,,,
"FIE00142195","1993-12-21",31.28,27.50,,,
"FIE00142195","1993-12-22",34.52,25.16,,,
"FIE00142195","1993-12-23",33.44,17.24,,,
"FIE00142195","1993-12-24",28.58,22.46,,,
"FIE00142195","1993-12-25",25.34,23.18,,,
"FIE00142195","1993-12-26",25.34,19.76,,,
"FIE00142195","1993-12-27",20.66,6.08,,,
"FIE00142195","1993-12-28",12.74,-4.00,,,
"FIE00142195","1993-12-29",28.76,12.38,,,
"FIE00142195","1993-12-30",31.10,28.22,,,
"FIE00142195","1993-12-31",32.54,28.76,,,
"FIE00142195","1994-01-01",32.00,24.44,,,
"FIE00142195","1994-01-02",28.76,26.24,,,
"FIE00142195","1994-01-03",31.64,24.26,,,
"FIE00142195","1994-01-04",29.84,24.44,,,
"FIE00142195","1994-01-05",26.24,19.94,,,
"FIE00142195","1994-01-06",26.42,19.76,,,
"FIE00142195","1994-01-07",31.28,26.24,,,
"FIE00142195","1994-01-08",33.98,30.92,,,
"FIE00142195","1994-01-09",35.42,15.80,,,
"FIE00142195","1994-01-10",28.76,6.98,,,
"FIE00142195","1994-01-11",27.86,21.92,,,
"FIE00142195","1994-01-12",26.24,21.56,,,
"FIE00142195","1994-01-13",35.60,26.06,,,
"FIE00142195","1994-01-14",36.86,35.06,,,
"FIE00142195","1994-01-15",36.14,32.54,,,
"FIE00142195","1994-01-16",33.62,30.02,,,
"FIE00142195","1994-01-17",30.38,18.86,,,
"FIE00142195","1994-01-18",22.46,9.14,,,
"FIE00142195","1994-01-19",22.46,4.10,,,
"FIE00142195","1994-01-20",32.72,9.32,,,
"FIE00142195","1994-01-21",37.58,32.00,,,
"FIE00142195","1994-01-22",39.56,29.84,,,
"FIE00142195","1994-01-23",34.16,25.52,,,
"FIE00142195","1994-01-24",31.64,23.54,,,
"FIE00142195","1994-01-25",28.76,18.14,,,
"FIE00142195","1994-01-26",22.82,6.62,,,
"FIE00142195","1994-01-27",31.10,20.66,,,
"FIE00142195","1994-01-28",33.08,17.96,,,
"FIE00142195","1994-01-29",17.96,4.46,,,
"FIE00142195","1994-01-30",13.28,-14.98,,,
"FIE00142195","1994-01-31",13.10,4.46,,,
"FIE00142195","1994-02-01",6.44,-0.22,,,
"FIE00142195","1994-02-02",5.72,-3.10,,,
"FIE00142195","1994-02-03",5.18,-0.94,,,
"FIE00142195","1994-02-04",4.82,-7.42,,,
"FIE00142195","1994-02-05",9.68,-22.00,,,
"FIE00142195","1994-02-06",7.16,-20.56,,,
"FIE00142195","1994-02-07",9.68,-11.38,,,
"FIE00142195","1994-02-08",9.32,-15.52,,,
"FIE00142195","1994-02-09",12.20,-10.66,,,
"FIE00142195","1994-02-10",10.76,3.02,,,
"FIE00142195","1994-02-11",6.26,-9.58,,,
"FIE00142195","1994-02-12",5.00,-22.72,,,
"FIE00142195","1994-02-13",20.30,-23.80,,,
"FIE00142195","1994-02-14",21.20,-1.48,,,
"FIE00142195","1994-02-15",25.88,12.20,,,
"FIE00142195","1994-02-16",27.68,17.24,,,
"FIE00142195","1994-02-17",25.52,12.56,,,
"FIE00142195","1994-02-18",23.72,-2.02,,,
"FIE00142195","1994-02-19",19.40,10.40,,,
"FIE00142195","1994-02-20",17.42,12.92,,,
"FIE00142195","1994-02-21",17.24,6.80,,,
"FIE00142195","1994-02-22",20.48,-2.38,,,
"FIE00142195","1994-02-23",18.68,-3.64,,,
"FIE00142195","1994-02-24",24.44,15.26,,,
"FIE00142195","1994-02-25",24.08,10.58,,,
"FIE00142195","1994-02-26",27.14,7.16,,,
"FIE00142195","1994-02-27",25.70,3.56,,,
"FIE00142195","1994-02-28",17.60,-11.92,,,
"FIE00142195","1994-03-01",24.44,-9.40,,,
"FIE00142195","1994-03-02",22.64,-12.82,,,
"FIE00142195","1994-03-03",20.84,3.38,,,
"FIE00142195","1994-03-04",23.36,17.60,,,
"FIE00142195","1994-03-05",28.04,17.24,,,
"FIE00142195","1994-03-06",24.44,20.48,,,
"FIE00142195","1994-03-07",33.08,21.56,,,
"FIE00142195","1994-03-08",34.34,28.76,,,
"FIE00142195","1994-03-09",38.48,32.72,,,
"FIE00142195","1994-03-10",36.68,28.76,,,
"FIE00142195","1994-03-11",38.30,30.20,,,
"FIE00142195","1994-03-12",37.40,33.44,,,
"FIE00142195","1994-03-13",35.78,32.18,,,
"FIE00142195","1994-03-14",36.14,31.82,,,
"FIE00142195","1994-03-15",35.96,30.38,,,
"FIE00142195","1994-03-16",36.68,25.52,,,
"FIE00142195","1994-03-17",36.32,28.04,,,
"FIE00142195","1994-03-18",35.06,20.66,,,
"FIE00142195","1994-03-19",33.08,15.80,,,
"FIE00142195","1994-03-20",31.82,24.44,,,
"FIE00142195","1994-03-21",33.44,13.28,,,
"FIE00142195","1994-03-22",37.40,8.24,,,
"FIE00142195","1994-03-23",32.90,23.00,,,
"FIE00142195","1994-03-24",37.04,31.82,,,
"FIE00142195","1994-03-25",33.26,26.06,,,
"FIE00142195","1994-03-26",26.24,21.74,,,
"FIE00142195","1994-03-27",26.42,11.66,,,
"FIE00142195","1994-03-28",38.84,-0.22,,,
"FIE00142195","1994-03-29",36.86,24.26,,,
"FIE00142195","1994-03-30",43.52,29.66,,,
"FIE00142195","1994-03-31",46.58,18.14,,,
"FIE00142195","1994-04-01",36.68,32.18,,,
"FIE00142195","1994-04-02",38.66,35.24,,,
"FIE00142195","1994-04-03",42.80,32.00,,,
"FIE00142195","1994-04-04",43.88,33.62,,,
"FIE00142195","1994-04-05",43.16,27.86,,,
"FIE00142195","1994-04-06",43.52,32.54,,,
"FIE00142195","1994-04-07",38.84,33.98,,,
"FIE00142195","1994-04-08",39.20,35.78,,,
"FIE00142195","1994-04-09",46.76,31.28,,,
"FIE00142195","1994-04-10",51.62,25.52,,,
"FIE00142195","1994-04-11",51.26,26.06,,,
"FIE00142195","1994-04-12",53.96,25.88,,,
"FIE00142195","1994-04-13",53.42,26.78,,,
"FIE00142195","1994-04-14",47.84,39.38,,,
"FIE00142195","1994-04-15",41.36,36.32,,,
"FIE00142195","1994-04-16",50.00,34.88,,,
"FIE00142195","1994-04-17",43.34,32.36,,,
"FIE00142195","1994-04-18",39.92,32.36,,,
"FIE00142195","1994-04-19",43.34,31.46,,,
"FIE00142195","1994-04-20",42.98,28.04,,,
"FIE00142195","1994-04-21",47.30,31.64,,,
"FIE00142195","1994-04-22",50.90,33.98,,,
"FIE00142195","1994-04-23",57.74,31.10,,,
"FIE00142195","1994-04-24",60.26,28.94,,,
"FIE00142195","1994-04-25",58.82,29.12,,,
"FIE00142195","1994-04-27",63.50,44.60,,,
"FIE00142195","1994-04-28",56.66,37.94,,,
"FIE00142195","1994-04-29",60.08,44.24,,,
"FIE00142195","1994-04-30",55.40,38.66,,,
"FIE00142195","1994-05-01",48.02,38.66,,,
"FIE00142195","1994-05-02",45.50,32.36,,,
"FIE00142195","1994-05-03",50.90,29.84,,,
"FIE00142195","1994-05-04",52.88,33.98,,,
"FIE00142195","1994-05-05",60.08,38.12,,,
"FIE00142195","1994-05-06",60.98,36.86,,,
"FIE00142195","1994-05-07",60.98,32.36,,,
"FIE00142195","1994-05-08",64.76,33.62,,,
"FIE00142195","1994-05-09",70.34,34.52,,,
"FIE00142195","1994-05-10",73.22,37.76,,,
"FIE00142195","1994-05-11",69.44,45.32,,,
"FIE00142195","1994-05-12",62.60,43.52,,,
"FIE00142195","1994-05-13",51.44,32.54,,,
"FIE00142195","1994-05-14",53.96,28.04,,,
"FIE00142195","1994-05-15",60.44,40.28,,,
"FIE00142195","1994-05-20",52.70,38.48,,,
"FIE00142195","1994-05-21",44.78,35.60,,,
"FIE00142195","1994-05-22",48.20,36.14,,,
"FIE00142195","1994-05-23",54.14,32.90,,,
"FIE00142195","1994-05-24",53.96,36.68,,,
"FIE00142195","1994-05-25",60.08,34.16,,,
"FIE00142195","1994-05-26",60.62,40.82,,,
"FIE00142195","1994-05-27",53.78,38.84,,,
"FIE00142195","1994-05-28",53.78,35.06,,,
"FIE00142195","1994-05-29",52.16,30.92,,,
"FIE00142195","1994-05-30",54.68,43.34,,,
"FIE00142195","1994-05-31",52.70,36.50,,,
"FIE00142195","1994-06-01",57.74,42.98,,,
"FIE00142195","1994-06-02",60.44,41.00,,,
"FIE00142195","1994-06-03",58.82,44.60,,,
"FIE00142195","1994-06-04",55.76,48.02,,,
"FIE00142195","1994-06-05",54.68,45.86,,,
"FIE00142195","1994-06-06",62.78,41.72,,,
"FIE00142195","1994-06-07",63.68,40.64,,,
"FIE00142195","1994-06-08",64.40,44.60,,,
"FIE00142195","1994-06-09",63.68,46.22,,,
"FIE00142195","1994-06-10",61.70,47.66,,,
"FIE00142195","1994-06-11",68.00,43.70,,,
"FIE00142195","1994-06-12",64.40,43.88,,,
"FIE00142195","1994-06-13",66.38,47.84,,,
"FIE00142195","1994-06-14",66.02,44.06,,,
"FIE00142195","1994-06-15",61.34,48.38,,,
"FIE00142195","1994-06-16",55.58,41.00,,,
"FIE00142195","1994-06-17",53.96,43.52,,,
"FIE00142195","1994-06-18",61.88,45.50,,,
"FIE00142195","1994-06-19",56.48,37.40,,,
"FIE00142195","1994-06-20",58.46,46.94,,,
"FIE00142195","1994-06-21",68.72,49.46,,,
"FIE00142195","1994-06-22",62.42,48.20,,,
"FIE00142195","1994-06-23",54.32,47.12,,,
"FIE00142195","1994-06-24",71.78,47.48,,,
"FIE00142195","1994-06-25",66.02,47.66,,,
"FIE00142195","1994-06-26",58.64,50.54,,,
"FIE00142195","1994-06-27",66.02,50.36,,,
"FIE00142195","1994-06-28",74.84,49.64,,,
"FIE00142195","1994-06-29",76.46,51.80,,,
"FIE00142195","1994-06-30",72.68,53.42,,,
"FIE00142195","1994-07-01",65.66,48.02,,,
"FIE00142195","1994-07-02",69.62,49.46,,,
"FIE00142195","1994-07-03",75.20,51.26,,,
"FIE00142195","1994-07-04",71.42,53.78,,,
"FIE00142195","1994-07-05",65.66,52.16,,,
"FIE00142195","1994-07-06",71.42,43.34,,,
"FIE00142195","1994-07-07",77.90,47.84,,,
"FIE00142195","1994-07-08",79.70,51.62,,,
"FIE00142195","1994-07-09",82.58,52.70,,,
"FIE00142195","1994-07-10",80.96,55.40,,,
"FIE00142195","1994-07-11",77.54,55.94,,,
"FIE00142195","1994-07-12",81.68,54.32,,,
"FIE00142195","1994-07-13",82.94,57.20,,,
"FIE00142195","1994-07-14",86.90,53.42,,,
"FIE00142195","1994-07-15",87.08,58.46,,,
"FIE00142195","1994-07-16",83.12,58.46,,,
"FIE00142195","1994-07-17",75.02,57.02,,,
"FIE00142195","1994-07-18",67.46,56.12,,,
"FIE00142195","1994-07-19",69.62,54.14,,,
"FIE00142195","1994-07-20",72.50,50.18,,,
"FIE00142195","1994-07-21",76.64,57.56,,,
"FIE00142195","1994-07-22",79.16,53.60,,,
"FIE00142195","1994-07-23",76.46,55.76,,,
"FIE00142195","1994-07-24",80.96,54.50,,,
"FIE00142195","1994-07-25",78.98,52.16,,,
"FIE00142195","1994-07-26",79.34,51.08,,,
"FIE00142195","1994-07-27",88.16,54.68,,,
"FIE00142195","1994-07-28",88.16,54.68,,,
"FIE00142195","1994-07-29",91.04,61.16,,,
"FIE00142195","1994-07-30",89.78,58.28,,,
"FIE00142195","1994-07-31",81.86,65.66,,,
"FIE00142195","1994-08-01",76.46,58.64,,,
"FIE00142195","1994-08-02",75.56,56.30,,,
"FIE00142195","1994-08-03",80.42,63.32,,,
"FIE00142195","1994-08-04",82.94,56.48,,,
"FIE00142195","1994-08-05",82.94,56.30,,,
"FIE00142195","1994-08-06",80.24,58.28,,,
"FIE00142195","1994-08-07",76.64,59.00,,,
"FIE00142195","1994-08-08",75.02,56.66,,,
"FIE00142195","1994-08-09",74.84,53.06,,,
"FIE00142195","1994-08-10",73.40,54.50,,,
"FIE00142195","1994-08-11",67.28,57.38,,,
"FIE00142195","1994-08-12",71.24,55.58,,,
"FIE00142195","1994-08-13",71.60,54.86,,,
"FIE00142195","1994-08-14",72.68,57.74,,,
"FIE00142195","1994-08-15",70.70,57.56,,,
"FIE00142195","1994-08-16",66.56,49.46,,,
"FIE00142195","1994-08-17",65.30,40.82,,,
"FIE00142195","1994-08-18",60.80,40.28,,,
"FIE00142195","1994-08-19",63.68,45.86,,,
"FIE00142195","1994-08-20",62.78,44.24,,,
"FIE00142195","1994-08-21",59.90,53.96,,,
"FIE00142195","1994-08-22",64.22,55.58,,,
"FIE00142195","1994-08-23",68.18,42.80,,,
"FIE00142195","1994-08-24",66.56,40.46,,,
"FIE00142195","1994-08-25",70.16,48.56,,,
"FIE00142195","1994-08-26",68.36,42.26,,,
"FIE00142195","1994-08-27",68.00,44.42,,,
"FIE00142195","1994-08-28",65.48,50.00,,,
"FIE00142195","1994-08-29",61.88,48.20,,,
"FIE00142195","1994-08-30",58.64,51.98,,,
"FIE00142195","1994-08-31",60.98,44.60,,,
"FIE00142195","1994-09-01",64.40,34.34,,,
"FIE00142195","1994-09-02",64.04,36.50,,,
"FIE00142195","1994-09-03",66.02,51.44,,,
"FIE00142195","1994-09-04",56.48,50.72,,,
"FIE00142195","1994-09-05",62.78,50.72,,,
"FIE00142195","1994-09-06",61.34,52.34,,,
"FIE00142195","1994-09-07",60.80,48.56,,,
"FIE00142195","1994-09-08",63.68,39.56,,,
"FIE00142195","1994-09-09",57.56,44.60,,,
"FIE00142195","1994-09-10",62.60,53.24,,,
"FIE00142195","1994-09-11",58.64,50.72,,,
"FIE00142195","1994-09-12",59.90,48.20,,,
"FIE00142195","1994-09-13",55.58,46.76,,,
"FIE00142195","1994-09-14",59.54,52.88,,,
"FIE00142195","1994-09-15",58.10,49.64,,,
"FIE00142195","1994-09-16",62.60,52.34,,,
"FIE00142195","1994-09-17",60.44,53.42,,,
"FIE00142195","1994-09-18",54.50,51.08,,,
"FIE00142195","1994-09-19",52.34,47.30,,,
"FIE00142195","1994-09-20",54.86,45.68,,,
"FIE00142195","1994-09-21",55.04,49.82,,,
"FIE00142195","1994-09-22",57.20,47.66,,,
"FIE00142195","1994-09-23",63.68,39.56,,,
"FIE00142195","1994-09-24",58.64,41.18,,,
"FIE00142195","1994-09-25",56.66,43.16,,,
"FIE00142195","1994-09-26",54.86,33.44,,,
"FIE00142195","1994-10-15",48.74,40.10,,,
"FIE00142195","1994-10-16",44.96,28.94,,,
"FIE00142195","1994-10-17",38.66,27.68,,,
"FIE00142195","1994-10-18",38.48,27.68,,,
"FIE00142195","1994-10-19",38.12,23.00,,,
"FIE00142195","1994-10-20",39.20,17.60,,,
"FIE00142195","1994-10-21",44.78,34.88,,,
"FIE00142195","1994-10-22",41.18,28.22,,,
"FIE00142195","1994-10-23",41.54,34.52,,,
"FIE00142195","1994-10-24",43.16,39.20,,,
"FIE00142195","1994-10-25",45.68,40.28,,,
"FIE00142195","1994-10-26",45.50,41.00,,,
"FIE00142195","1994-10-27",46.40,41.36,,,
"FIE00142195","1994-10-28",45.68,42.44,,,
"FIE00142195","1994-10-29",46.04,37.04,,,
"FIE00142195","1994-10-30",44.60,38.30,,,
"FIE00142195","1994-10-31",42.98,35.24,,,
"FIE00142195","1994-11-01",40.46,38.12,,,
"FIE00142195","1994-11-02",39.20,36.32,,,
"FIE00142195","1994-11-03",37.76,28.58,,,
"FIE00142195","1994-11-05",40.28,30.92,,,
"FIE00142195","1994-11-06",44.06,36.68,,,
"FIE00142195","1994-11-07",36.50,27.86,,,
"FIE00142195","1994-11-08",35.42,31.28,,,
"FIE00142195","1994-11-09",32.36,27.86,,,
"FIE00142195","1994-11-10",28.94,26.78,,,
"FIE00142195","1994-11-11",26.96,14.18,,,
"FIE00142195","1994-11-12",24.80,12.74,,,
"FIE00142195","1994-11-13",29.66,17.60,,,
"FIE00142195","1994-11-14",36.14,15.80,,,
"FIE00142195","1994-11-15",43.88,28.94,,,
"FIE00142195","1994-11-16",40.64,31.28,,,
"FIE00142195","1994-11-17",32.54,26.42,,,
"FIE00142195","1994-11-18",30.56,15.98,,,
"FIE00142195","1994-11-19",28.94,20.30,,,
"FIE00142195","1994-11-20",40.28,19.22,,,
"FIE00142195","1994-11-21",40.82,34.70,,,
"FIE00142195","1994-11-22",38.12,29.66,,,
"FIE00142195","1994-11-23",45.14,34.52,,,
"FIE00142195","1994-11-24",49.64,36.86,,,
"FIE00142195","1994-11-25",37.76,22.82,,,
"FIE00142195","1994-11-26",26.78,11.66,,,
"FIE00142195","1994-11-27",38.84,26.78,,,
"FIE00142195","1994-11-28",39.20,33.98,,,
"FIE00142195","1994-11-29",36.32,32.36,,,
"FIE00142195","1994-11-30",33.08,20.48,,,
"FIE00142195","1994-12-01",39.02,14.00,,,
"FIE00142195","1994-12-02",36.68,25.16,,,
"FIE00142195","1994-12-03",32.00,24.08,,,
"FIE00142195","1994-12-04",34.34,31.64,,,
"FIE00142195","1994-12-05",39.20,33.44,,,
"FIE00142195","1994-12-06",38.48,34.70,,,
"FIE00142195","1994-12-07",35.78,33.80,,,
"FIE00142195","1994-12-08",36.14,33.44,,,
"FIE00142195","1994-12-09",36.32,32.90,,,
"FIE00142195","1994-12-10",35.78,32.00,,,
"FIE00142195","1994-12-11",40.64,32.90,,,
"FIE00142195","1994-12-12",34.88,28.76,,,
"FIE00142195","1994-12-13",33.80,30.56,,,
"FIE00142195","1994-12-14",31.82,21.92,,,
"FIE00142195","1994-12-15",30.02,25.16,,,
"FIE00142195","1994-12-16",28.76,15.80,,,
"FIE00142195","1994-12-17",20.12,16.70,,,
"FIE00142195","1994-12-18",27.50,16.70,,,
"FIE00142195","1994-12-19",27.86,21.56,,,
"FIE00142195","1994-12-20",32.18,27.14,,,
"FIE00142195","1994-12-21",31.82,29.66,,,
"FIE00142195","1994-12-22",33.44,30.56,,,
"FIE00142195","1994-12-23",36.68,26.06,,,
"FIE00142195","1994-12-24",38.48,35.06,,,
"FIE00142195","1994-12-25",39.74,37.58,,,
"FIE00142195","1994-12-26",39.38,33.44,,,
"FIE00142195","1994-12-27",34.16,30.74,,,
"FIE00142195","1994-12-28",32.72,27.14,,,
"FIE00142195","1994-12-29",34.16,16.16,,,
"FIE00142195","1994-12-30",42.08,33.62,,,
"FIE00142195","1994-12-31",37.76,31.28,,,
"FIE00142195","1995-01-01",37.40,31.46,,,
"FIE00142195","1995-01-02",33.62,25.70,,,
"FIE00142195","1995-01-03",25.70,14.00,,,
"FIE00142195","1995-01-04",30.56,10.40,,,
"FIE00142195","1995-01-05",33.62,28.58,,,